Weather History for Knoxville, TN

Change the Weather History Date:

Wednesday, September 25, 2013

  Actual Average Record
Temperature  
Mean Temperature 68 °F 68 °F  
Max Temperature 70 °F 78 °F 92 °F (1933)
Min Temperature 65 °F 57 °F 38 °F (1897)
Degree Days  
Heating Degree Days 0 2  
Month to date heating degree days 1 11  
Since 1 July heating degree days 1 11  
Cooling Degree Days 3 4  
Month to date cooling degree days 187 188  
Year to date cooling degree days 1374 1469  
Growing Degree Days 17 (Base 50)    
Moisture  
Dew Point 65 °F    
Average Humidity 89    
Maximum Humidity 93    
Minimum Humidity 84    
Precipitation  
Precipitation 0.48 in 0.11 in 2.03 in (2000)
Month to date precipitation 4.42 2.69  
Year to date precipitation 55.80 36.29  
Snow  
Snow 0.00 in 0.00 in - ()
Month to date snowfall 0.0 0.0  
Since 1 July snowfall 0.0 0.0  
Since 1 September snowfall 0.0 0.0  
Snow Depth 0.00 in    
Sea Level Pressure  
Sea Level Pressure 29.86 in    
Wind  
Wind Speed 2 mph (North)    
Max Wind Speed 7 mph    
Max Gust Speed 7 mph    
Visibility 5 miles    
Events Rain    
T = Trace of Precipitation, MM = Missing Value Source: NWS Daily Summary

Daily Weather History Graph

Daily Weather History Graph

Search for Another Location

Airport:

Trip Planner

Search our weather history database for the weather conditions in past years. The results will help you decide how hot, cold, wet, or windy it might be!

Date:

Astronomy

Sep. 25, 2013 Rise Set
Actual Time 7:26 AM EDT 7:28 PM EDT
Civil Twilight 7:00 AM EDT 7:53 PM EDT
Nautical Twilight 6:31 AM EDT 8:23 PM EDT
Astronomical Twilight 6:01 AM EDT 8:53 PM EDT
Moon 11:43 PM EDT (9/25) 1:21 PM EDT (9/25)
Length of Visible Light 12h 52m
Length of Day
12h 01m
Waning Gibbous, 64% of the Moon is Illuminated
Sep 25
Waning Gibbous
Sep 26
Last Quarter
Oct 4
New
Oct 11
First Quarter
Oct 18
Full

Hourly Weather History & Observations

Time (EDT) Temp. Dew Point Humidity Pressure Visibility Wind Dir Wind Speed Gust Speed Precip Events Conditions
12:53 AM 66.9 °F 64.0 °F 90% 29.87 in 10.0 mi Calm Calm - N/A   Overcast
1:53 AM 66.0 °F 64.9 °F 96% 29.86 in 7.0 mi Calm Calm - N/A   Overcast
2:53 AM 66.0 °F 64.0 °F 93% 29.86 in 8.0 mi South 3.5 mph - N/A   Mostly Cloudy
3:53 AM 66.0 °F 64.0 °F 93% 29.84 in 5.0 mi Calm Calm - 0.00 in Rain Light Rain
4:04 AM 66.2 °F 64.4 °F 94% 29.87 in 5.0 mi Calm Calm - 0.00 in Rain Light Rain
4:19 AM 66.2 °F 64.4 °F 94% 29.87 in 3.0 mi Calm Calm - 0.00 in Rain Light Rain
4:45 AM 66.2 °F 64.4 °F 94% 29.87 in 3.0 mi Calm Calm - 0.02 in Rain Light Rain
4:53 AM 66.0 °F 64.9 °F 96% 29.84 in 3.0 mi Calm Calm - 0.03 in Rain Light Rain
5:24 AM 66.2 °F 64.4 °F 94% 29.87 in 3.0 mi ESE 3.5 mph - 0.03 in Rain Rain
5:38 AM 66.2 °F 64.4 °F 94% 29.87 in 2.5 mi Calm Calm - 0.04 in Rain Light Rain
5:53 AM 66.0 °F 64.9 °F 96% 29.84 in 2.5 mi Calm Calm - 0.05 in Rain Light Rain
6:11 AM 66.2 °F 64.4 °F 94% 29.86 in 4.0 mi Calm Calm - 0.02 in Rain Light Rain
6:28 AM 66.2 °F 64.4 °F 94% 29.86 in 2.0 mi Calm Calm - 0.02 in Rain Light Rain
6:53 AM 66.0 °F 64.9 °F 96% 29.84 in 1.5 mi SSE 3.5 mph - 0.03 in Rain Rain
7:22 AM 66.2 °F 64.4 °F 94% 29.87 in 2.0 mi Calm Calm - 0.04 in Rain Light Rain
7:46 AM 66.2 °F 64.4 °F 94% 29.87 in 2.5 mi North 3.5 mph - 0.04 in   Overcast
7:53 AM 66.0 °F 64.9 °F 96% 29.85 in 1.5 mi NNW 4.6 mph - 0.05 in Rain Rain
8:15 AM 66.2 °F 64.4 °F 94% 29.88 in 1.0 mi Calm Calm - 0.01 in Rain Light Rain
8:36 AM 66.2 °F 64.4 °F 94% 29.89 in 1.5 mi Calm Calm - 0.02 in Rain Light Rain
8:53 AM 66.0 °F 64.9 °F 96% 29.87 in 1.5 mi Calm Calm - 0.02 in Rain Light Rain
9:23 AM 66.2 °F 64.4 °F 94% 29.88 in 1.5 mi East 5.8 mph - 0.01 in Rain Light Rain
9:53 AM 66.9 °F 64.9 °F 93% 29.86 in 2.5 mi East 5.8 mph - 0.01 in   Overcast
10:42 AM 66.2 °F 64.4 °F 94% 29.90 in 1.5 mi Calm Calm - 0.02 in Rain Rain
10:53 AM 66.9 °F 63.0 °F 87% 29.88 in 1.5 mi Calm Calm - 0.07 in Rain Rain
11:42 AM 66.2 °F 62.6 °F 88% 29.90 in 2.5 mi SSE 3.5 mph - 0.11 in Rain Light Rain
11:53 AM 66.0 °F 62.1 °F 87% 29.88 in 2.5 mi SE 3.5 mph - 0.11 in Rain Light Rain
12:33 PM 66.2 °F 64.4 °F 94% 29.89 in 3.0 mi Variable 3.5 mph - 0.04 in Rain Light Rain
12:53 PM 68.0 °F 64.0 °F 87% 29.86 in 5.0 mi East 5.8 mph - 0.04 in   Overcast
1:41 PM 68.0 °F 64.4 °F 88% 29.88 in 6.0 mi Calm Calm - N/A   Overcast
1:53 PM 68.0 °F 64.9 °F 90% 29.85 in 6.0 mi Calm Calm - N/A   Overcast
2:53 PM 70.0 °F 64.9 °F 84% 29.83 in 7.0 mi East 3.5 mph - 0.00 in   Overcast
3:14 PM 69.8 °F 64.4 °F 83% 29.85 in 10.0 mi ENE 4.6 mph - N/A   Overcast
3:53 PM 70.0 °F 64.0 °F 81% 29.82 in 10.0 mi NE 3.5 mph - N/A   Overcast
4:36 PM 69.8 °F 64.4 °F 83% 29.85 in 10.0 mi NW 4.6 mph - N/A   Overcast
4:53 PM 68.0 °F 64.9 °F 90% 29.83 in 10.0 mi NNW 6.9 mph - N/A   Overcast
5:34 PM 68.0 °F 66.2 °F 94% 29.86 in 2.0 mi NNE 4.6 mph - 0.01 in Rain Light Rain
5:37 PM 68.0 °F 66.2 °F 94% 29.86 in 1.8 mi North 5.8 mph - 0.01 in Rain Light Rain
5:49 PM 68.0 °F 66.2 °F 94% 29.86 in 1.8 mi North 3.5 mph - 0.01 in Rain Rain
5:53 PM 66.9 °F 64.9 °F 93% 29.84 in 1.5 mi NNW 6.9 mph - N/A Rain Light Rain
6:14 PM 66.2 °F 64.4 °F 94% 29.86 in 0.5 mi North 3.5 mph - 0.02 in Rain Light Rain
6:17 PM 66.2 °F 64.4 °F 94% 29.86 in 0.5 mi North 3.5 mph - 0.02 in Rain Light Rain
6:22 PM 66.9 °F 64.9 °F 93% 29.84 in 0.5 mi Calm Calm - 0.02 in Rain Light Rain
6:30 PM 66.2 °F 64.4 °F 94% 29.86 in 1.5 mi North 3.5 mph - 0.02 in Rain Rain
6:37 PM 66.2 °F 64.4 °F 94% 29.86 in 1.5 mi NNW 4.6 mph - 0.03 in Rain Light Rain
6:45 PM 66.2 °F 64.4 °F 94% 29.86 in 1.5 mi Calm Calm - 0.04 in Rain Light Rain
6:53 PM 66.9 °F 64.9 °F 93% 29.84 in 1.5 mi Calm Calm - 0.05 in Rain Light Rain
7:02 PM 66.2 °F 64.4 °F 94% 29.87 in 2.5 mi Calm Calm - 0.00 in Rain Light Rain
7:13 PM 66.2 °F 64.4 °F 94% 29.87 in 4.0 mi NW 3.5 mph - 0.00 in Rain Light Rain
7:49 PM 66.2 °F 64.4 °F 94% 29.87 in 10.0 mi NW 3.5 mph - 0.00 in   Overcast
7:53 PM 66.9 °F 64.9 °F 93% 29.85 in 10.0 mi NW 3.5 mph - 0.00 in   Overcast
8:22 PM 66.2 °F 64.4 °F 94% 29.87 in 6.0 mi Calm Calm - 0.00 in Rain Light Rain
8:53 PM 66.9 °F 64.9 °F 93% 29.86 in 6.0 mi Calm Calm - 0.00 in   Overcast
9:08 PM 66.2 °F 64.4 °F 94% 29.88 in 6.0 mi Calm Calm - 0.00 in Rain Light Rain
9:38 PM 66.2 °F 64.4 °F 94% 29.88 in 7.0 mi Calm Calm - 0.00 in Rain Light Rain
9:53 PM 66.0 °F 64.9 °F 96% 29.87 in 7.0 mi South 3.5 mph - 0.00 in Rain Light Rain
10:11 PM 66.2 °F 64.4 °F 94% 29.89 in 9.0 mi SW 3.5 mph - 0.00 in Rain Light Rain
10:48 PM 66.2 °F 64.4 °F 94% 29.89 in 8.0 mi Calm Calm - 0.00 in Rain Light Rain
10:53 PM 66.0 °F 64.9 °F 96% 29.87 in 9.0 mi Calm Calm - 0.00 in Rain Light Rain
11:24 PM 66.2 °F 64.4 °F 94% 29.89 in 10.0 mi Calm Calm - 0.00 in   Overcast
11:32 PM 66.2 °F 64.4 °F 94% 29.90 in 10.0 mi Calm Calm - 0.00 in   Overcast
11:43 PM 66.2 °F 64.4 °F 94% 29.90 in 10.0 mi West 3.5 mph - 0.00 in   Overcast
11:47 PM 66.2 °F 64.4 °F 94% 29.90 in 10.0 mi West 3.5 mph - 0.00 in   Overcast
11:53 PM 66.0 °F 64.9 °F 96% 29.88 in 9.0 mi West 4.6 mph - 0.00 in   Overcast